Temp
23 22 21 21 21 22 23 23 23 24 25 25 24 24 23 23 23 26 27 28 29 27 27 28 27 27 28 28 30 30 30 30 29 29 26 23 24 24 23 23 22 21 20 19 19 19 20 20 20 19 17 17 17 16 16 17 16 15 15 16 17 17 18 18 18 19 19 19 19 19 19 19 19 19 19 19 19 19 19 18 18 18 17 17 17 17
23 21 20 21 22 23 24 24 24 24 24 24 24 23 23 23 24 26 28 28 30 28 26 28 27 27 28 28 29 29 29 29 29 29 27 24 23 24 23 23 22 20 20 19 19 20 20 21 21 19 18 18 16 16 17 17 16 16 17 17 17 16 18 19 17 19 19 19 19 19 19 19 19 20 19 19 19 19 18 18 18 18 18 18 18 17
21 20 21 23 23 24 24 24 24 24 24 24 23 23 22 23 24 26 28 29 30 28 26 27 27 27 29 28 29 29 29 30 30 30 28 24 23 24 24 23 21 20 19 19 19 19 20 21 21 20 19 17 16 16 16 16 16 17 17 18 17 17 18 18 17 19 20 19 20 20 20 20 20 20 20 19 19 19 18 18 18 18 18 18 18 18
20 21 22 24 24 24 24 24 24 24 24 23 23 22 22 24 24 23 26 28 29 28 27 27 27 27 29 28 29 29 29 30 30 30 29 26 24 25 24 22 21 20 19 19 19 19 20 20 20 20 19 16 15 15 15 16 16 16 17 18 18 18 17 17 18 20 20 20 20 20 20 20 20 20 20 19 19 19 18 18 18 18 18 18 18 18
21 23 24 24 24 24 23 24 24 23 23 23 24 23 22 24 24 23 26 27 27 28 28 27 25 25 27 28 29 30 29 29 29 29 29 28 26 24 23 22 21 20 19 19 19 19 19 19 19 19 17 15 15 15 16 17 17 16 17 18 19 18 17 18 20 20 20 20 20 20 20 20 20 20 19 19 19 19 18 18 18 18 18 19 18 18
22 24 25 24 24 24 24 24 24 24 23 22 24 25 24 24 24 24 25 25 24 24 27 27 22 22 26 27 29 30 29 29 29 29 29 30 27 22 22 21 20 20 19 19 19 19 19 19 19 17 15 15 15 18 18 17 16 16 17 19 19 19 18 19 20 20 20 20 20 20 20 20 20 20 19 19 19 19 18 19 19 18 18 18 18 18
24 25 25 24 24 24 24 24 24 25 23 21 24 26 26 25 25 24 24 23 21 22 26 27 22 21 23 26 28 28 29 29 29 28 29 30 26 21 21 20 19 19 19 18 17 17 18 17 17 16 15 15 15 17 17 16 16 16 16 18 19 19 19 20 20 20 20 20 20 20 20 20 20 20 20 20 19 19 19 19 19 19 19 18 18 18
25 25 25 25 25 24 24 23 25 26 23 21 24 26 25 25 25 25 24 23 23 23 25 26 24 22 21 24 28 28 28 28 27 28 29 28 24 20 21 20 18 18 18 17 16 16 16 15 15 15 15 15 14 15 16 16 17 17 17 18 18 19 19 20 20 20 20 20 20 20 20 20 20 20 20 20 19 19 19 19 19 19 19 18 18 18
26 25 25 25 25 24 24 25 26 26 24 23 26 26 25 25 25 26 25 23 24 23 22 23 24 22 20 24 27 28 27 27 27 28 27 23 21 20 20 18 17 17 17 17 16 16 15 15 14 15 14 14 15 15 16 16 16 17 17 18 18 19 19 20 20 20 20 20 20 20 20 20 20 20 20 19 19 19 19 19 19 19 19 18 19 19
26 26 26 26 25 25 25 26 27 26 25 25 27 26 26 26 26 26 25 23 23 22 21 22 23 22 21 23 25 26 25 26 27 27 24 21 21 19 17 17 17 17 17 17 16 15 15 14 14 15 15 15 16 16 16 16 16 17 17 18 19 19 19 20 20 20 20 20 20 20 20 20 20 20 19 19 19 19 19 19 19 19 19 18 18 18
26 27 27 27 26 26 26 27 27 26 26 26 26 26 25 25 25 25 24 24 22 21 21 22 23 22 21 22 24 24 25 27 28 24 21 21 20 17 17 17 17 17 17 16 16 15 15 15 15 15 15 15 16 16 16 16 17 17 18 19 19 19 20 20 20 20 20 20 20 20 20 20 20 20 19 19 19 19 19 19 19 19 18 18 18 18
26 26 27 27 27 27 27 26 26 27 27 27 26 25 23 23 23 23 23 23 21 20 21 23 24 22 21 22 24 24 24 27 27 23 21 21 18 17 17 17 17 17 16 16 16 15 15 15 14 15 15 15 15 16 17 17 17 18 19 19 19 19 20 20 20 20 20 20 20 20 20 20 20 20 19 19 19 19 19 19 19 19 18 18 18 18
25 25 26 27 27 27 26 25 25 26 26 26 25 23 22 21 21 21 21 21 21 21 22 23 24 22 21 22 23 24 23 25 25 23 22 21 18 17 17 17 17 17 16 16 15 15 15 15 15 15 15 15 15 17 19 19 18 19 19 19 19 20 20 20 20 20 20 20 20 20 20 20 20 20 19 19 19 19 19 19 19 18 18 18 18 18
22 24 26 26 26 27 26 24 23 24 25 25 24 22 21 20 20 20 20 21 21 21 22 24 23 21 21 23 23 23 22 22 23 23 23 20 17 17 17 17 17 17 16 16 15 15 15 15 15 15 15 15 16 18 19 18 17 18 19 19 19 19 20 20 20 20 20 20 19 20 20 20 20 20 19 19 19 19 19 19 19 19 18 18 18 17
21 22 24 24 25 26 26 25 24 24 25 25 26 24 22 21 21 20 20 21 21 21 22 23 22 21 21 22 23 23 22 21 21 21 21 19 17 17 17 17 17 16 16 16 16 16 15 15 15 15 15 15 16 17 16 15 16 16 17 17 18 18 18 19 19 19 20 19 19 20 20 20 20 20 19 19 19 19 19 19 19 19 18 18 17 17
21 21 24 26 26 26 26 26 26 25 24 25 26 25 22 22 22 21 21 21 21 21 21 21 21 21 22 23 24 22 21 21 20 20 19 18 17 17 17 17 17 16 16 16 16 16 15 15 15 15 15 16 16 16 16 16 16 16 16 16 17 17 17 19 19 19 19 19 19 19 20 20 20 20 19 19 19 19 19 19 19 19 18 18 17 17
21 21 25 26 26 26 26 26 27 25 23 23 24 23 23 25 24 21 20 21 21 21 21 21 21 21 22 23 23 21 20 20 20 19 18 17 17 17 17 17 16 16 16 16 16 16 16 15 15 15 15 15 16 16 16 16 17 16 16 17 17 17 18 19 19 19 19 19 19 19 20 20 20 20 20 20 19 19 19 19 19 18 18 18 17 17
22 21 24 26 25 26 27 27 27 27 25 23 22 23 25 25 24 22 21 21 21 20 21 21 21 20 20 21 21 20 19 19 19 18 17 17 17 17 17 17 16 16 15 15 15 16 15 15 15 15 15 15 16 16 16 17 17 17 17 17 17 17 18 18 19 18 18 18 19 19 20 19 20 20 20 20 19 19 19 19 18 18 18 17 17 17
23 21 23 26 25 25 27 26 25 26 27 25 25 26 25 22 22 22 21 21 20 20 21 20 20 19 19 19 20 20 19 18 19 18 16 16 16 16 16 16 16 15 15 15 15 15 15 15 15 15 15 15 16 16 16 16 16 16 17 17 17 17 17 18 18 18 18 18 19 19 19 19 19 20 19 19 19 19 19 18 18 18 17 17 17 17
24 21 21 25 26 25 25 24 23 24 26 26 26 25 24 22 21 21 21 21 20 20 20 20 19 19 19 19 19 20 19 18 18 17 16 16 16 16 16 15 15 15 15 15 15 15 15 14 14 15 15 15 15 16 16 16 16 16 16 16 17 17 17 17 17 17 17 18 18 19 19 19 19 19 19 19 19 19 18 18 18 17 17 17 17 17
23 22 21 23 25 24 22 23 23 23 24 24 24 23 23 22 22 22 21 21 21 20 20 20 19 18 18 19 19 19 19 18 18 17 16 16 16 16 15 15 15 15 15 15 15 15 15 14 15 15 15 15 15 15 16 16 16 16 16 16 16 16 16 16 16 17 17 17 18 18 19 19 19 19 19 19 19 18 18 18 18 17 17 17 17 17
21 21 21 21 22 22 22 24 25 24 23 23 23 23 23 22 21 21 21 21 22 21 20 20 19 18 18 18 18 17 17 18 18 17 17 16 16 15 15 15 15 15 15 15 15 15 15 15 15 15 15 15 15 15 15 16 16 16 16 16 16 16 16 16 16 17 18 18 18 18 17 18 19 19 18 19 18 18 18 18 18 17 17 17 17 17
20 20 21 21 21 22 22 24 24 24 23 23 22 22 23 22 21 21 20 21 21 20 20 20 19 17 18 17 16 16 16 16 16 17 17 16 16 16 15 15 15 15 16 16 16 15 15 15 16 15 15 15 15 16 16 16 16 16 16 16 15 16 16 16 16 17 17 17 17 17 16 16 18 19 18 18 18 18 18 18 18 17 17 17 17 17
21 20 20 20 21 22 23 23 23 23 22 21 21 21 21 20 21 22 21 21 21 20 20 20 18 17 17 16 15 16 16 15 15 16 16 15 15 16 15 15 15 15 16 16 16 16 15 15 16 16 16 16 16 16 16 16 16 15 15 15 16 15 15 15 16 15 15 15 15 15 14 14 16 17 18 18 18 18 18 18 17 17 17 17 17 17
20 19 19 20 19 20 21 21 22 21 20 20 20 20 19 19 21 22 21 21 21 20 20 20 18 16 16 16 15 15 15 15 14 15 15 15 15 15 14 14 14 14 15 15 15 15 15 15 15 15 15 15 15 15 15 16 15 14 14 15 15 15 15 15 15 14 14 14 14 14 14 15 15 17 17 18 18 18 18 18 17 17 17 17 18 18
20 19 19 19 18 18 19 19 19 19 19 19 19 19 18 18 19 21 21 21 20 20 20 19 17 16 16 16 15 15 15 14 14 15 15 15 14 14 14 14 14 14 14 14 14 14 14 15 15 14 14 14 14 14 15 15 15 14 14 14 14 15 15 15 15 14 14 14 14 14 14 14 16 17 17 17 18 18 18 18 17 17 17 17 18 18
19 19 20 19 19 19 19 18 18 19 18 18 18 18 18 17 17 19 20 20 19 19 19 18 16 16 15 15 15 15 14 14 14 15 15 15 15 14 14 14 14 14 14 13 13 13 13 14 14 14 14 14 14 14 14 14 15 15 14 14 14 14 15 15 14 14 13 13 13 13 14 15 15 17 17 17 17 17 18 18 18 17 18 18 18 18
18 18 19 20 19 20 19 18 18 19 18 18 18 18 17 17 16 17 18 17 17 19 19 17 16 16 15 15 15 14 14 14 14 14 14 15 15 15 15 14 14 14 14 13 13 13 13 13 13 13 13 14 14 14 14 14 15 15 15 15 15 14 14 14 14 14 13 13 12 13 15 15 14 15 17 16 16 17 17 18 18 18 18 18 18 18
18 18 19 19 19 20 20 18 18 19 18 18 18 17 17 16 16 16 16 15 17 20 18 16 16 16 15 15 15 15 14 14 14 14 14 15 15 15 15 14 14 14 13 13 12 12 12 12 12 12 13 13 13 14 14 15 15 15 15 15 14 14 14 14 14 13 13 13 13 13 15 14 13 15 16 16 16 16 17 17 18 18 18 18 18 18
17 18 18 18 19 20 19 18 19 19 18 18 18 17 17 16 16 16 16 15 17 18 17 15 15 15 15 15 14 14 14 14 14 14 14 15 15 15 14 13 13 12 12 11 11 11 11 11 11 11 11 12 12 12 13 14 15 15 15 15 15 14 14 14 14 14 14 14 14 14 14 13 13 14 15 15 15 15 16 17 17 18 18 17 18 18
15 16 16 17 19 19 20 19 20 19 19 18 18 17 17 17 16 16 16 15 15 15 14 14 14 14 13 13 13 13 13 13 13 13 13 13 14 14 13 12 12 11 11 11 11 11 10 10 10 10 10 11 11 11 12 12 13 14 14 15 15 16 16 16 16 15 15 15 15 15 15 14 14 14 13 14 15 16 16 16 16 17 18 17 17 17
14 14 15 16 17 18 19 19 19 19 19 18 17 16 16 17 16 15 15 15 14 14 13 13 13 13 12 11 11 11 11 12 11 11 11 11 12 12 11 11 10 10 10 10 10 10 10 10 9 9 10 10 10 11 11 11 12 13 13 14 15 15 15 15 15 15 15 15 15 15 15 14 14 14 13 14 15 15 14 14 14 16 17 17 17 17
13 14 14 14 15 15 16 17 18 18 17 16 14 13 14 16 16 15 15 15 14 14 14 13 12 12 11 11 11 10 10 10 10 10 10 10 10 10 10 9 9 9 9 9 9 9 9 9 9 9 9 10 10 10 10 11 11 12 12 13 14 14 14 14 15 14 14 15 15 15 14 14 14 13 13 13 13 13 13 13 14 16 16 16 16 16
13 15 14 13 14 14 15 16 17 17 15 14 13 13 13 15 16 16 15 15 14 14 14 13 11 10 10 10 10 9 9 9 9 9 9 9 9 8 8 8 8 8 8 8 8 8 9 9 9 9 9 9 10 10 11 11 11 12 12 13 13 13 13 14 14 14 14 14 14 14 15 14 14 14 14 14 14 14 15 15 16 16 16 16 16 16
14 15 14 13 15 15 15 16 16 14 14 13 13 13 13 15 16 16 14 14 14 14 13 12 11 10 10 9 9 9 8 8 8 8 8 8 8 8 7 7 7 7 7 7 7 7 7 8 8 8 9 9 10 10 11 11 11 12 12 13 13 13 13 13 14 14 14 14 14 14 14 15 15 15 15 15 15 15 16 16 16 16 16 16 16 16
15 15 14 14 15 16 15 16 14 13 13 13 12 12 13 14 15 15 14 13 13 14 13 12 11 10 9 9 9 9 8 8 8 8 8 8 8 8 8 7 7 7 7 7 7 7 7 8 8 8 8 9 10 10 11 11 11 11 12 12 12 12 12 13 13 13 13 13 14 14 14 14 15 15 15 15 15 15 15 15 15 16 16 16 16 16
17 16 15 15 15 15 15 14 13 13 13 12 12 12 12 12 13 14 13 12 12 14 12 10 10 10 9 9 9 9 9 9 8 8 8 9 9 9 9 8 8 8 7 7 7 8 8 9 9 9 9 9 9 10 10 11 11 11 11 12 12 12 12 12 12 12 12 12 12 13 13 14 14 14 14 14 14 15 15 14 14 15 15 15 15 16
17 16 15 14 14 14 14 13 12 13 12 12 11 12 12 11 12 13 13 11 12 13 11 10 10 10 9 9 9 10 10 10 8 8 8 9 9 9 9 9 9 9 8 8 8 9 9 10 10 10 10 10 9 9 10 10 10 11 11 11 11 11 11 11 11 11 11 11 11 12 12 13 13 13 13 13 14 14 14 14 14 14 14 14 14 15
16 15 15 15 14 14 14 13 12 12 11 11 11 12 12 11 11 12 12 11 12 12 11 10 10 10 10 10 10 11 11 9 8 8 9 9 9 9 9 9 10 10 10 9 10 10 10 10 10 10 10 10 10 9 9 10 10 10 10 10 10 10 10 10 10 10 10 10 11 11 11 11 11 12 12 12 13 13 13 14 14 14 14 14 14 14
14 14 14 14 14 13 13 12 11 10 10 11 11 12 13 12 12 13 12 11 12 13 12 11 11 10 11 11 11 11 10 9 8 9 10 10 10 9 9 9 10 10 10 10 10 11 11 10 10 10 10 10 10 9 9 9 9 9 9 9 9 9 9 9 9 9 10 10 10 10 10 10 10 10 11 11 11 12 12 12 13 13 14 14 14 14
13 13 13 13 13 13 12 11 10 10 10 11 11 11 13 13 13 12 11 11 11 12 12 12 11 11 11 12 11 11 10 10 10 11 11 11 10 10 10 10 10 10 10 10 10 11 11 10 10 10 10 9 9 9 9 9 9 9 9 9 9 9 9 9 9 9 9 9 9 9 9 9 9 10 10 10 10 10 11 11 11 12 12 13 13 14
12 12 12 12 12 13 12 11 10 10 10 11 12 12 13 13 12 11 11 11 12 12 12 12 12 12 12 11 11 11 11 11 11 11 11 11 10 10 10 10 11 10 10 10 10 10 10 10 10 10 9 9 9 9 9 9 9 9 9 9 9 9 9 9 9 9 9 9 9 9 9 9 9 9 9 9 9 9 9 10 10 10 11 11 12 13
12 12 11 11 11 12 12 11 10 10 11 12 12 12 11 11 11 11 12 12 12 12 12 11 11 12 11 11 10 11 11 11 11 11 10 10 10 10 10 10 10 10 10 9 9 10 10 10 9 9 9 9 9 9 9 9 9 9 9 9 9 9 9 9 9 9 9 8 8 8 8 8 8 8 8 8 8 8 8 9 9 9 10 10 11 11
13 12 11 11 11 11 10 9 9 10 11 12 11 10 10 10 11 12 11 11 11 11 11 11 11 11 11 10 10 10 10 10 10 10 10 10 10 9 9 9 10 10 9 9 9 9 9 9 9 9 9 9 9 9 9 9 9 9 9 9 9 9 9 9 8 8 8 8 8 7 7 7 7 7 7 7 7 7 7 8 8 8 9 9 10 10
12 12 11 11 11 11 10 10 11 11 11 11 10 10 10 10 10 11 10 10 9 9 9 10 10 10 11 10 10 10 10 10 10 10 10 10 9 9 9 9 9 9 9 9 9 9 9 9 9 9 9 9 9 9 9 9 9 9 8 8 8 8 8 8 7 7 7 7 7 7 7 6 6 6 7 7 6 7 7 7 7 8 8 9 9 9
13 13 12 11 11 11 11 11 11 11 10 10 10 10 10 10 10 10 9 9 9 9 9 9 9 10 10 10 10 10 10 10 10 10 10 10 9 9 9 9 9 9 9 9 8 9 9 9 9 9 9 9 9 9 9 9 9 8 7 7 7 7 7 7 7 6 6 6 6 6 6 6 6 6 6 6 6 6 6 6 7 7 7 7 8 8
14 13 12 11 11 10 10 11 11 11 10 11 10 10 10 10 10 9 9 9 9 9 9 9 9 10 10 10 10 9 10 10 10 10 10 10 9 8 9 9 9 9 9 8 8 8 9 9 9 9 9 9 9 8 8 8 8 7 7 7 7 6 6 6 6 5 5 5 5 5 5 6 6 6 6 6 6 6 6 6 6 6 6 6 6 6
13 13 12 11 11 11 10 11 11 11 11 11 10 9 9 9 9 10 9 9 10 9 9 9 10 10 10 10 10 9 9 10 10 10 10 10 8 8 8 9 9 8 8 8 8 8 8 9 9 9 8 8 8 8 7 7 7 6 6 6 6 6 5 5 5 5 5 5 5 5 5 5 5 5 5 5 5 5 5 5 5 5 5 6 6 6
13 12 12 11 10 10 10 11 11 11 10 10 10 10 10 10 10 10 10 10 10 10 9 9 9 9 9 9 9 9 9 9 9 9 9 9 8 8 8 8 8 8 8 8 8 8 8 8 8 8 8 8 7 7 7 7 6 6 6 6 5 5 5 4 4 4 4 4 4 4 4 4 4 4 4 4 4 4 4 4 5 5 5 5 5 5
12 11 11 10 10 9 10 11 11 10 9 10 10 10 10 10 10 10 10 10 10 10 10 9 9 9 9 9 9 9 9 9 9 9 8 8 7 7 7 7 7 7 7 8 8 8 8 8 8 8 8 7 7 7 7 6 6 6 5 5 5 5 4 4 4 3 3 3 3 3 3 3 3 3 4 4 4 4 4 4 4 4 4 4 4 5
12 11 11 10 9 9 10 11 11 10 9 10 10 11 11 11 11 10 9 10 10 10 9 9 9 9 9 9 10 9 8 8 8 8 7 6 6 6 6 6 7 7 7 7 8 8 8 8 8 8 7 7 7 6 6 6 5 5 5 5 5 4 4 4 3 3 3 3 3 3 3 3 3 3 3 3 3 3 3 3 4 4 4 4 3 4
Height
741 751 756 755 754 750 746 744 744 742 740 740 740 742 742 742 740 728 719 710 705 718 721 717 723 725 721 718 712 708 708 712 716 717 722 728 730 731 734 736 739 743 746 748 750 754 757 761 763 766 771 775 776 776 777 780 784 789 794 795 797 799 801 804 804 804 807 808 810 812 813 814 815 816 816 817 818 819 819 820 819 820 821 822 823 825
742 755 755 748 745 742 740 739 738 739 739 740 742 743 742 741 736 724 715 707 699 712 719 713 719 723 718 716 710 707 710 712 711 713 718 726 729 730 733 737 740 744 746 748 751 753 756 759 761 763 766 770 773 774 777 782 785 789 793 795 797 800 800 802 804 804 806 808 809 810 811 812 814 815 815 817 818 819 819 820 820 820 821 822 824 825
751 754 747 739 737 736 736 735 736 738 738 740 741 744 746 738 732 724 712 703 698 707 716 713 718 720 714 712 709 707 710 709 706 707 712 721 727 729 732 736 740 744 747 749 752 754 756 757 759 761 764 769 771 774 779 784 787 789 792 794 796 799 800 803 806 805 806 808 808 809 811 812 813 814 815 817 818 819 819 820 820 821 822 823 824 825
757 748 737 733 733 735 737 734 735 738 738 740 740 744 746 735 734 736 719 705 701 703 709 713 717 717 712 711 708 706 706 704 703 705 707 714 720 723 726 731 736 741 745 749 751 754 756 758 759 761 765 770 773 778 783 786 787 788 789 791 793 796 800 804 806 806 806 807 808 809 810 812 813 814 816 817 818 819 820 821 821 821 822 823 824 825
748 734 727 729 731 732 736 734 734 739 741 739 736 740 741 732 732 735 724 714 709 704 704 712 724 724 716 716 712 705 704 704 704 705 707 710 715 720 725 730 733 736 741 746 751 755 757 760 761 763 768 772 777 782 784 784 785 786 786 789 790 793 799 803 804 804 805 806 807 808 810 812 813 814 815 816 818 818 819 820 821 822 823 824 824 825
738 724 721 728 730 729 733 734 731 734 739 739 734 730 731 729 728 729 727 727 729 724 709 712 739 741 721 717 716 708 707 708 705 707 709 710 715 723 729 734 737 739 741 745 751 757 760 761 764 768 772 775 777 779 780 782 785 786 787 788 789 792 797 801 802 803 804 805 806 807 809 810 812 814 815 816 816 817 818 819 820 822 823 824 825 826
728 719 718 724 727 728 730 731 726 725 737 742 732 723 723 724 726 730 731 735 743 739 716 711 739 749 730 721 718 713 713 710 707 710 710 710 718 727 731 735 739 741 745 751 757 762 764 765 769 773 777 779 778 779 782 784 787 788 789 789 790 792 796 799 800 802 803 804 805 807 808 809 811 813 814 815 816 816 818 819 820 822 823 824 824 825
719 718 719 718 721 726 728 729 722 720 735 741 726 721 725 724 725 728 730 736 737 731 723 717 728 745 745 729 716 713 715 714 713 714 712 714 723 730 733 738 743 746 750 756 762 765 766 770 776 779 780 782 784 786 787 786 786 788 789 791 791 792 795 797 799 801 802 803 804 806 808 810 811 812 813 814 815 816 817 818 820 821 822 823 824 826
712 716 719 715 719 723 722 721 716 716 730 731 719 719 723 722 723 721 725 733 729 730 739 730 725 746 753 731 716 715 717 719 719 716 718 724 729 733 739 743 746 751 754 756 760 764 766 772 781 786 785 783 784 785 786 786 786 787 789 791 792 792 794 796 798 799 801 802 803 805 807 810 811 812 813 814 815 816 817 818 819 820 821 823 824 826
709 709 708 711 717 718 715 712 710 716 724 719 715 718 719 720 720 719 725 729 728 739 749 736 728 748 754 733 722 724 722 721 719 718 725 730 733 739 745 747 749 753 757 759 762 767 770 774 780 787 786 780 778 782 785 787 788 788 790 791 792 792 793 795 796 798 799 801 803 805 807 809 810 811 813 814 814 815 816 818 819 820 821 823 824 825
705 700 700 704 709 709 709 709 708 712 714 712 715 720 722 722 720 722 724 723 736 751 747 733 727 743 755 739 725 727 724 715 714 724 732 732 737 746 747 749 753 755 758 762 765 769 773 775 778 782 782 776 775 781 784 786 788 789 789 790 791 791 792 793 795 797 799 801 803 804 805 807 809 810 812 812 813 815 816 817 818 819 821 822 824 825
706 705 703 699 699 702 706 710 708 706 707 712 717 722 731 733 728 732 729 727 749 760 742 728 724 738 756 745 726 726 721 710 711 724 733 735 743 749 747 750 756 758 759 761 764 768 771 775 778 778 776 773 774 779 783 784 785 786 787 788 789 790 791 792 794 796 798 800 802 803 804 806 808 809 810 811 812 814 815 816 818 819 821 822 824 825
712 708 704 699 697 698 708 716 714 709 709 714 719 725 740 749 748 752 747 742 754 753 734 725 727 740 751 742 729 727 722 715 714 719 725 734 745 750 748 751 755 758 759 760 762 765 768 773 778 776 772 770 770 773 779 780 779 781 783 785 787 787 789 790 791 794 796 798 800 802 803 804 806 808 810 811 812 813 814 816 818 819 820 822 823 824
723 713 704 705 703 698 707 719 724 720 714 716 722 729 743 755 764 769 760 753 754 746 729 723 731 745 748 739 731 728 725 722 720 720 722 732 744 749 749 750 753 756 758 761 763 764 766 772 776 776 772 771 768 766 772 775 776 779 780 783 785 786 788 789 791 793 796 798 800 801 802 803 805 807 809 811 812 813 815 816 817 818 819 821 822 824
736 731 714 710 708 701 704 710 715 715 711 711 711 719 734 743 754 764 760 757 756 747 734 729 739 752 752 741 730 726 727 725 725 727 728 736 745 747 749 752 755 759 760 762 763 762 766 769 773 774 772 771 767 764 769 777 779 781 782 785 788 789 790 791 792 794 796 798 800 801 801 802 803 806 808 811 812 814 815 816 817 818 819 820 822 824
734 731 709 701 700 698 702 702 700 708 717 713 706 716 730 729 733 747 752 750 750 750 745 742 748 750 743 734 727 727 731 730 732 734 736 744 748 748 753 756 758 761 761 762 762 762 766 769 772 773 771 771 770 768 772 778 781 783 785 787 790 791 791 792 793 794 796 798 800 800 801 801 803 806 808 810 812 814 815 816 817 818 819 820 821 823
731 725 701 696 698 694 698 698 695 707 721 719 717 723 721 712 718 739 751 745 745 756 754 748 751 749 741 737 733 734 739 740 740 742 745 750 751 751 755 757 759 761 760 761 762 762 766 770 772 773 772 773 772 770 772 775 778 781 784 787 790 790 790 791 793 795 798 800 801 802 802 803 804 806 807 809 811 813 815 816 817 818 819 820 821 823
723 725 705 696 703 695 690 694 694 696 707 718 724 718 710 710 715 729 749 752 755 765 756 747 754 757 756 755 746 742 749 751 749 750 753 755 755 756 758 759 761 761 761 762 763 764 766 769 771 772 773 774 772 770 771 774 777 781 785 788 789 789 790 792 794 797 800 802 802 803 804 804 806 807 808 809 811 813 814 816 818 819 820 821 822 823
713 728 714 695 701 699 687 696 704 698 695 705 711 705 712 732 734 733 745 755 763 769 758 754 763 765 766 764 755 752 756 756 754 755 758 760 759 760 762 763 764 765 765 766 766 767 768 770 771 771 773 774 772 771 772 774 777 781 785 787 788 789 790 793 796 798 800 801 801 803 803 804 806 808 809 810 811 813 815 817 818 819 820 821 822 824
708 726 725 701 695 700 699 706 715 711 700 698 703 705 713 728 734 735 740 745 755 764 763 768 774 771 767 763 756 755 756 756 757 759 762 764 763 763 765 767 768 768 769 769 770 771 771 772 773 773 774 773 772 772 773 773 774 777 781 786 788 790 792 794 796 798 798 799 800 801 802 804 807 808 810 811 813 814 816 818 818 819 821 822 823 825
710 718 726 712 698 706 718 716 712 715 712 709 712 716 718 721 725 731 735 734 740 755 765 771 777 774 765 758 755 756 756 756 757 759 763 766 766 767 768 769 770 771 771 772 772 773 773 774 775 775 776 775 774 775 776 777 778 779 782 786 789 792 794 796 796 798 798 798 799 801 803 805 808 810 811 813 815 816 817 819 819 820 821 822 823 825
721 721 723 720 713 717 722 711 703 709 714 715 717 716 715 720 727 739 747 735 729 746 759 762 773 777 765 757 760 760 759 759 759 760 764 767 769 771 772 773 774 775 775 775 776 777 777 777 778 779 778 777 778 779 780 782 783 784 785 788 792 794 796 797 798 799 799 799 800 801 805 808 809 811 813 814 816 817 818 819 820 820 821 822 824 825
721 724 722 722 720 718 715 706 703 706 707 712 720 720 719 722 727 740 753 744 733 744 753 756 771 778 765 760 764 765 764 765 765 765 766 769 771 773 776 778 778 779 779 779 780 780 781 781 780 780 779 778 779 781 783 784 785 787 788 791 794 795 796 798 799 800 801 802 804 805 809 814 813 812 814 816 817 819 819 820 820 821 822 823 824 825
718 727 728 726 723 715 710 706 704 707 712 720 727 729 730 732 727 725 733 735 736 746 754 762 776 779 769 766 767 766 767 769 772 773 771 771 772 772 776 779 780 781 781 781 782 782 782 782 781 781 781 781 782 784 784 785 786 789 791 793 794 795 797 798 799 802 803 804 807 809 814 818 817 815 816 817 818 819 820 820 821 822 823 823 824 825
727 736 734 735 737 732 727 723 719 720 727 733 736 735 736 735 727 722 725 730 738 744 748 761 778 779 771 769 769 768 770 774 778 779 775 773 774 775 776 779 781 783 783 783 783 782 782 782 782 783 784 785 786 787 787 788 790 792 794 795 796 797 798 800 801 804 806 807 808 811 814 817 819 818 819 818 819 820 820 821 821 822 822 823 824 825
731 737 735 739 747 748 747 744 740 738 739 739 739 739 742 741 735 731 729 733 743 745 743 756 774 777 772 771 773 774 777 780 779 776 775 774 776 778 778 780 783 785 785 785 785 785 785 786 786 787 789 790 791 791 792 792 793 794 797 798 799 799 800 802 803 805 808 809 810 811 813 816 818 818 819 820 820 821 821 821 822 822 823 824 824 825
731 734 732 735 740 740 742 743 739 738 741 745 745 744 746 748 745 739 735 741 751 751 750 758 766 773 776 774 775 777 780 783 779 775 776 775 775 777 778 780 782 784 786 787 789 790 790 791 792 792 793 795 795 796 796 797 797 797 798 799 799 801 801 803 805 806 809 811 813 814 814 816 817 817 818 820 821 821 822 822 822 823 824 824 825 826
735 738 733 732 733 729 732 737 736 736 741 745 748 750 751 751 752 750 752 757 756 752 759 764 761 769 777 775 775 777 779 780 780 779 780 779 780 781 781 782 784 786 789 791 794 796 797 798 798 797 798 800 801 801 800 800 800 798 799 799 799 800 801 802 804 806 808 811 814 815 813 815 818 818 818 820 821 822 823 823 823 824 824 825 825 826
736 740 734 733 735 729 727 734 735 736 741 744 748 753 755 756 758 759 761 761 750 745 758 767 765 771 776 774 775 776 776 778 780 781 782 782 783 784 784 787 791 795 798 800 802 803 804 805 804 803 805 806 805 803 801 800 800 799 800 800 801 803 803 804 806 809 811 812 814 814 813 816 819 818 817 819 821 822 823 824 824 824 824 824 824 825
738 740 736 736 737 731 729 733 733 734 741 744 748 752 755 758 761 760 762 760 750 749 759 765 769 775 777 777 778 777 777 779 779 781 784 784 784 784 786 792 798 803 805 806 807 808 808 809 807 807 808 806 805 803 801 801 801 801 802 802 802 804 804 805 807 810 812 812 813 814 815 817 818 817 818 819 820 821 822 823 824 824 824 824 824 825
744 746 743 739 737 733 729 730 731 734 740 744 748 752 754 757 761 762 763 762 761 767 771 771 774 779 780 781 783 783 783 783 783 786 790 791 789 786 789 795 801 805 808 809 810 810 810 810 810 809 808 807 807 806 805 804 803 803 803 803 803 804 804 805 806 808 810 810 811 812 814 815 816 818 820 819 819 819 820 822 824 824 824 824 824 825
751 753 750 746 746 743 734 732 735 736 740 748 755 761 761 759 762 765 765 764 768 774 779 780 782 784 787 788 788 788 789 790 793 795 798 800 797 795 798 802 805 808 810 811 812 812 813 812 812 811 810 810 809 808 808 807 806 805 804 803 804 805 806 806 807 809 810 811 812 813 814 814 815 819 821 821 820 821 823 825 825 824 823 824 824 825
754 755 756 756 759 758 749 742 741 742 750 762 770 773 770 763 760 764 766 766 769 771 775 783 789 791 793 792 791 794 797 798 801 803 804 805 804 804 807 809 810 812 812 813 814 814 815 815 814 814 812 811 811 811 810 809 807 808 807 807 807 808 808 808 808 810 811 812 813 815 816 817 819 821 823 823 823 825 825 826 824 822 823 824 823 824
750 750 757 761 762 764 758 748 747 754 766 775 775 773 770 762 757 763 767 768 769 770 773 781 789 795 798 797 797 799 803 805 807 807 808 809 809 811 814 815 816 816 815 816 816 816 816 815 815 815 813 812 812 812 811 810 810 811 810 810 810 810 810 810 810 811 812 813 814 816 817 818 820 821 823 822 823 823 822 822 822 821 822 822 823 823
749 749 757 761 759 761 759 754 759 770 776 777 776 772 767 759 755 761 768 770 771 772 774 780 789 795 799 802 802 802 806 809 809 810 812 813 813 815 817 819 819 818 818 819 818 818 818 816 816 815 815 814 814 813 812 812 813 813 812 812 812 811 812 812 812 812 813 814 815 816 816 817 817 819 821 821 822 822 821 821 821 821 821 821 822 822
747 750 753 755 754 756 757 759 768 777 777 775 776 774 769 766 763 766 774 779 777 773 775 784 792 796 799 803 805 806 808 810 811 813 815 816 816 817 818 820 820 819 820 820 819 819 818 818 817 817 816 816 815 814 814 815 815 815 815 815 814 814 814 814 814 815 815 816 816 817 817 817 817 818 819 820 820 820 821 822 821 822 822 821 821 821
740 747 751 755 757 757 759 768 775 777 777 779 782 782 780 780 777 774 781 788 784 776 780 790 797 799 801 804 806 807 806 807 813 818 819 818 819 819 819 820 820 820 820 820 820 820 820 819 819 819 819 819 818 818 817 817 817 817 817 817 817 817 817 817 817 818 818 819 819 819 820 820 819 820 820 820 820 820 821 822 822 823 823 822 822 821
738 744 751 758 763 761 764 774 778 779 783 787 787 785 783 783 780 776 782 791 789 784 786 791 796 801 802 803 806 805 802 807 818 823 822 820 821 820 820 820 820 820 821 821 821 822 822 822 822 822 823 822 822 823 822 820 819 819 819 820 820 820 820 820 821 821 821 822 822 822 822 822 822 822 821 821 821 821 821 821 822 823 823 823 822 821
745 748 752 757 764 766 768 773 779 785 792 792 788 783 782 784 782 777 784 795 793 788 790 792 796 801 802 802 804 803 804 814 825 825 821 821 821 820 820 821 821 821 822 822 823 823 824 825 825 825 825 825 825 826 825 824 823 822 823 824 824 824 824 824 825 825 825 825 825 825 825 825 824 824 823 823 822 822 821 821 821 821 822 822 822 822
755 757 759 762 766 769 772 778 786 794 796 792 787 784 781 781 779 777 788 798 793 787 790 793 796 800 800 801 802 803 807 817 822 820 819 820 821 821 821 821 821 821 822 822 823 824 825 826 827 827 827 827 827 827 827 827 826 826 827 828 828 828 828 828 828 828 828 827 827 827 826 826 825 825 824 824 823 823 823 822 821 821 821 821 820 820
767 767 768 771 772 772 776 786 795 798 796 790 788 785 779 777 779 784 794 798 793 789 791 793 795 799 799 800 802 805 809 812 814 816 818 819 820 821 821 822 821 821 822 823 824 825 826 827 827 828 828 829 829 829 828 828 827 828 829 829 830 830 830 829 829 828 828 828 827 827 826 826 825 825 824 823 823 822 822 822 821 822 821 821 820 819
774 776 777 779 778 774 777 788 798 801 796 789 786 782 777 780 790 796 795 794 792 791 792 793 796 798 799 801 804 807 809 811 813 816 817 818 819 820 821 821 822 823 824 825 826 827 827 828 828 829 830 830 830 830 829 829 829 829 830 830 830 830 830 829 829 828 828 827 827 826 826 825 825 824 823 823 822 820 820 820 820 820 819 819 819 818
775 778 783 786 784 779 780 791 802 805 798 787 783 784 785 790 796 796 793 793 794 794 794 796 798 799 801 804 807 809 811 813 815 817 818 819 820 821 822 823 824 825 826 827 827 828 828 828 829 830 831 831 831 831 830 830 830 830 830 830 830 830 830 829 829 828 828 827 827 826 826 825 825 824 823 822 821 820 819 818 818 818 818 818 817 816
774 776 784 788 785 785 792 801 804 802 797 790 789 795 798 797 795 792 794 798 799 798 799 801 802 803 803 806 809 811 814 816 817 818 819 821 822 823 824 825 826 827 828 828 829 829 829 830 830 830 831 831 831 831 831 830 830 830 830 830 830 829 829 828 828 827 827 827 826 826 825 825 824 824 823 822 821 820 819 818 817 817 816 816 816 815
777 777 782 788 788 788 796 801 798 796 796 795 796 800 801 799 797 796 799 802 804 805 805 805 807 808 807 808 810 813 815 817 818 820 821 823 824 825 826 827 828 829 829 829 830 830 830 831 831 831 831 831 831 831 831 831 831 831 830 830 830 829 828 828 827 827 826 826 826 825 825 824 824 823 823 822 821 820 819 818 817 816 816 816 815 814
777 776 779 787 791 791 793 795 795 797 800 800 800 801 802 802 802 802 803 806 808 809 808 808 810 811 810 812 813 815 818 819 820 822 823 824 825 826 827 828 829 830 830 831 831 831 831 831 831 831 831 831 831 831 831 831 831 831 831 830 829 829 828 828 827 827 827 827 826 826 825 825 824 823 823 822 821 820 819 818 818 817 816 815 814 813
775 776 780 787 791 795 800 800 797 799 801 801 802 804 804 805 806 806 807 809 810 810 810 811 812 813 814 815 817 818 820 821 822 823 825 825 826 827 828 829 830 831 831 832 832 832 832 832 832 832 832 832 832 832 831 831 831 831 830 830 829 829 829 828 828 828 828 827 827 827 826 826 825 824 823 822 821 820 819 818 818 816 816 815 814 813
777 778 783 789 792 796 801 801 797 799 801 801 804 807 807 808 810 809 810 810 810 811 813 813 814 815 817 818 819 820 822 823 824 825 825 826 828 828 829 830 831 832 832 833 833 833 833 832 832 832 832 833 833 833 832 832 832 832 831 831 830 830 830 830 829 829 829 828 828 827 827 826 825 823 822 821 820 820 819 818 817 816 815 815 815 814
780 782 787 792 796 799 801 800 799 802 804 804 806 808 808 809 811 811 811 812 812 813 814 815 816 817 818 819 821 821 823 824 825 826 826 828 829 829 830 831 832 833 833 833 833 833 833 833 832 832 833 834 834 834 834 833 834 833 833 832 832 831 831 831 830 830 830 829 828 828 827 826 825 824 822 821 820 819 819 818 817 816 815 814 814 814
784 790 792 794 801 806 804 800 801 806 809 809 808 808 808 809 810 812 813 813 813 814 816 817 818 819 819 821 822 822 824 826 826 827 828 829 830 831 832 833 834 834 834 834 834 834 834 833 833 833 835 835 835 835 835 835 835 834 834 833 832 832 832 831 831 830 830 829 829 828 827 826 825 823 822 821 820 819 817 816 816 815 814 813 812 811
788 792 793 796 803 807 804 800 800 805 809 808 807 808 808 809 810 812 814 814 815 815 816 818 820 821 821 822 822 824 826 827 828 829 830 832 833 834 834 835 835 836 835 835 835 835 834 833 834 834 835 836 836 836 836 836 835 834 834 833 833 832 832 831 831 831 830 829 829 828 827 826 825 823 822 821 820 818 816 814 813 812 812 811 810 808
Wind_Speed
5 4 5 6 7 7 8 10 11 10 10 11 10 8 8 6 6 10 12 14 13 8 13 15 11 12 15 13 12 12 7 6 9 11 13 13 13 12 12 11 11 11 11 14 20 24 23 23 27 26 23 22 20 21 25 23 23 26 24 23 21 20 21 21 22 24 22 21 21 20 20 20 18 17 16 15 15 14 11 8 8 8 8 9 9 7
5 6 7 8 8 9 10 10 11 12 12 11 8 7 8 7 7 10 13 14 12 6 10 14 10 10 14 12 12 11 9 9 9 13 13 15 14 11 12 12 11 11 10 14 16 18 21 22 24 26 25 24 21 24 27 20 23 27 24 24 23 20 22 21 20 23 22 21 22 21 22 22 19 17 18 18 17 16 13 10 8 8 7 7 6 6
5 7 8 9 9 10 12 11 10 12 12 9 6 6 6 7 7 10 15 15 9 5 9 14 10 8 10 12 12 10 8 7 7 11 12 15 16 11 12 12 12 13 12 12 12 13 17 20 21 24 23 22 24 26 23 18 21 25 23 23 23 21 21 20 19 21 21 21 22 21 22 22 21 19 18 18 17 16 14 11 9 8 6 5 5 5
4 7 10 11 10 11 11 11 10 9 9 8 6 5 6 8 6 6 10 9 4 0 7 10 6 4 6 8 10 8 7 8 9 10 10 14 16 15 15 15 15 16 14 13 12 10 12 15 17 20 19 19 22 22 20 18 22 27 25 25 26 23 20 18 18 21 21 20 19 19 21 21 21 20 18 15 14 15 14 12 11 9 6 5 5 5
8 9 10 11 12 12 10 10 10 6 5 6 7 6 5 8 8 6 7 9 7 4 5 7 4 4 4 3 5 6 3 7 9 9 8 8 11 12 14 14 15 16 15 15 13 9 8 10 11 14 18 23 25 24 21 24 26 29 28 26 27 24 19 17 18 21 20 19 20 22 24 23 22 21 20 18 17 17 15 13 12 11 8 6 7 7
11 12 9 12 14 13 11 10 9 6 3 4 5 7 6 10 12 9 10 9 6 6 3 6 4 5 5 2 5 6 4 6 7 7 8 6 9 13 13 12 11 12 13 13 11 9 7 7 9 11 19 27 30 28 28 27 26 28 28 28 28 24 19 18 19 20 20 21 24 26 25 25 23 20 19 19 18 19 17 14 12 12 10 7 7 8
8 12 10 12 14 14 13 10 7 7 3 3 4 5 7 11 13 10 9 6 2 3 3 4 4 3 5 5 7 6 6 8 7 8 9 7 9 12 12 10 10 10 10 11 12 10 7 7 8 10 17 25 27 24 24 26 25 26 28 28 28 24 19 20 21 20 20 21 21 21 21 22 22 20 18 17 17 19 18 15 13 14 12 9 10 9
8 12 11 11 10 10 10 7 6 8 4 4 4 6 10 10 12 10 5 5 4 4 3 2 5 2 3 5 8 7 7 6 5 8 7 7 11 12 11 11 11 11 12 12 11 10 11 12 14 12 17 21 18 16 19 25 28 27 27 26 26 25 22 22 22 21 20 19 19 20 20 20 21 20 19 18 18 19 18 15 14 14 12 10 9 7
8 12 11 9 7 6 5 4 5 6 4 5 5 8 11 10 12 10 5 6 4 2 2 3 4 3 3 6 7 7 7 4 4 8 7 11 13 12 13 13 13 14 14 13 11 10 12 14 14 14 20 21 21 22 22 24 26 26 25 24 25 26 25 24 24 22 21 20 20 20 19 20 21 20 19 20 20 18 16 14 14 14 12 10 8 7
6 9 10 8 5 4 3 4 5 5 6 6 7 9 10 9 9 7 5 5 1 3 4 5 3 2 4 6 5 5 6 6 6 5 8 12 13 15 16 14 13 12 10 11 12 11 13 18 22 22 24 27 29 27 23 21 21 21 21 23 26 26 26 26 24 23 22 22 21 19 20 23 23 21 19 19 18 17 15 14 15 15 13 11 10 8
7 6 7 7 5 4 3 4 6 8 8 7 7 7 7 7 6 5 5 4 3 1 5 5 3 4 3 5 4 3 4 6 6 6 8 12 16 18 15 13 12 11 9 11 12 12 13 19 25 28 28 29 31 28 24 23 21 21 23 25 28 27 27 27 25 23 23 23 20 18 21 24 23 20 19 18 18 17 15 15 15 13 11 11 10 8
11 8 4 3 5 6 5 5 7 9 10 6 5 5 4 5 4 4 2 4 3 4 5 5 4 5 3 5 4 1 6 2 6 10 10 14 19 17 13 12 11 10 11 12 12 12 13 14 18 24 26 29 32 29 26 26 25 26 28 29 30 29 28 27 26 24 24 23 19 18 22 23 21 20 19 19 19 17 15 15 14 12 12 12 10 8
9 7 4 2 2 3 4 5 5 7 7 6 6 4 3 2 3 3 2 3 3 4 5 6 4 4 4 3 3 5 10 9 6 11 13 17 22 18 12 12 11 9 11 11 11 10 11 11 11 17 23 27 33 35 32 32 33 33 34 34 33 32 31 28 27 26 26 24 20 20 23 22 21 20 18 18 17 16 15 14 14 14 15 13 11 10
4 5 5 4 2 2 4 5 3 5 5 6 5 4 3 1 0 2 3 1 2 3 4 5 4 4 2 1 4 8 10 10 10 9 12 18 23 19 13 12 11 10 9 8 9 8 8 10 9 12 16 15 23 37 35 30 31 32 35 35 34 33 32 29 28 27 26 23 19 22 24 22 21 20 17 16 16 15 14 14 14 15 15 14 13 12
3 5 5 5 3 6 8 7 5 5 3 4 4 5 5 4 4 3 2 1 2 3 4 2 3 2 2 2 2 10 11 11 12 12 15 19 18 17 13 12 12 10 8 7 8 8 7 9 11 13 15 13 17 28 24 17 19 22 25 25 23 24 25 25 26 26 25 21 17 21 24 22 21 19 17 16 16 14 13 13 12 14 15 16 15 15
4 5 7 9 8 8 10 8 7 5 3 2 1 3 4 4 5 3 2 3 3 1 3 0 2 2 2 2 3 12 12 12 13 15 18 18 14 14 13 11 10 9 8 7 7 6 6 10 12 13 15 16 15 19 18 16 17 16 18 16 13 15 20 22 24 25 23 19 16 21 24 22 21 19 18 17 15 14 13 11 11 15 18 18 17 16
3 4 5 10 12 10 9 8 7 5 2 2 1 2 6 6 7 4 1 2 2 2 3 0 3 2 1 2 5 11 12 12 13 14 16 15 14 14 12 10 10 7 7 7 7 5 4 8 10 10 11 14 14 19 21 21 20 18 17 15 12 15 19 21 22 22 20 16 15 20 22 21 21 20 19 19 16 15 15 12 13 17 18 18 16 13
4 5 6 4 9 10 8 9 8 6 6 3 2 4 3 0 4 4 2 1 2 1 3 2 5 1 2 1 3 9 11 9 11 12 12 12 13 13 11 11 10 8 8 8 8 7 4 5 8 10 12 13 15 20 23 21 17 14 14 14 14 16 18 20 19 18 17 14 14 18 20 19 20 19 19 20 18 16 16 14 15 18 17 15 13 12
4 4 7 5 3 5 4 7 8 6 5 6 4 3 1 2 1 1 2 3 2 2 2 1 4 2 2 1 3 5 7 7 10 11 11 10 11 13 13 12 11 10 9 8 9 8 6 6 8 10 12 13 15 17 19 18 16 12 10 13 15 15 17 18 16 15 16 15 16 19 18 18 19 18 18 19 19 17 16 15 16 17 16 13 12 14
3 3 4 7 2 1 3 2 5 5 5 5 3 1 2 3 3 1 2 3 3 3 2 2 2 2 1 3 2 3 6 7 9 9 9 9 10 12 11 10 10 9 8 8 9 8 7 8 9 10 12 13 14 14 15 17 19 16 10 10 13 14 15 16 15 14 14 14 16 18 18 18 18 18 19 19 18 17 16 15 16 16 15 14 15 16
2 3 2 6 4 3 2 3 2 1 2 4 3 3 2 2 2 2 1 2 4 3 2 2 0 3 4 4 3 5 6 6 8 9 9 8 9 10 8 8 8 7 8 8 8 7 7 9 12 13 13 14 12 11 11 11 12 12 9 9 11 12 13 14 14 15 14 14 15 16 15 18 18 17 19 19 16 16 16 14 15 16 15 16 17 17
2 0 4 3 3 1 1 4 4 7 6 2 1 3 3 3 3 2 2 3 3 3 3 4 2 3 4 2 4 6 6 7 7 8 9 8 8 8 6 6 6 6 7 7 7 7 6 8 11 13 14 13 11 9 9 10 9 7 7 8 8 10 12 11 12 16 17 14 14 14 11 13 18 19 18 17 16 15 16 15 16 16 16 17 17 17
1 1 2 3 2 1 1 5 7 10 9 7 6 5 4 2 4 5 2 3 0 2 1 3 3 1 3 3 6 6 7 10 9 6 8 8 6 7 6 5 5 4 5 6 7 7 7 9 12 14 14 13 11 9 9 10 9 8 6 6 4 6 9 9 10 14 16 13 12 12 8 7 16 21 18 16 17 16 16 16 16 15 16 17 17 17
1 1 1 1 3 3 4 6 7 11 10 7 6 8 7 5 2 4 5 3 2 1 2 3 2 1 2 4 5 7 10 10 9 7 8 8 7 7 7 6 5 5 5 6 6 6 8 10 11 12 13 12 11 11 9 8 8 8 7 6 3 4 5 7 7 7 7 8 7 5 1 3 11 18 18 18 17 16 16 16 16 15 16 17 16 16
2 1 1 2 3 5 6 6 5 7 6 3 4 8 9 10 9 3 2 4 2 3 5 4 1 2 1 2 5 9 10 8 7 7 7 8 8 7 7 6 5 6 7 6 5 6 7 8 8 10 11 11 12 12 10 7 7 6 7 8 8 7 6 7 6 5 5 7 8 6 4 7 13 14 15 16 15 15 15 15 16 15 15 16 16 15
1 1 1 3 3 1 1 2 1 2 3 2 5 10 12 12 11 4 2 5 2 1 4 6 4 2 4 6 8 10 9 6 6 7 7 7 7 7 7 7 6 6 8 9 10 10 8 7 8 10 13 15 15 13 11 10 8 7 8 9 9 9 9 9 6 7 8 6 9 10 9 12 17 16 14 14 13 14 15 15 16 16 15 15 15 14
2 1 2 1 3 4 4 4 3 1 3 4 7 12 12 11 10 6 4 2 1 2 3 3 9 9 5 7 8 9 8 6 6 7 7 6 7 7 8 8 8 7 8 9 10 10 10 9 9 11 12 13 12 9 7 6 9 10 10 9 8 6 8 8 6 6 7 5 6 9 13 15 17 18 16 14 12 12 14 14 14 15 15 14 14 14
2 1 2 0 1 3 6 5 3 2 3 5 7 10 11 11 10 9 5 2 3 3 3 2 10 12 6 5 7 8 8 7 7 7 6 7 8 9 10 11 12 11 10 11 10 10 10 8 9 11 9 7 10 11 10 10 13 14 12 10 8 7 8 7 6 6 7 8 6 8 15 15 14 14 16 12 8 9 14 15 14 14 15 14 14 14
2 1 2 2 2 2 6 8 4 4 4 5 7 8 9 10 10 8 3 3 1 5 5 6 9 9 6 5 5 6 7 7 7 6 7 8 10 12 14 15 15 14 14 14 13 12 11 9 11 14 13 9 9 9 11 13 14 16 15 14 11 10 10 10 10 8 8 11 11 11 14 13 11 12 14 11 6 6 11 14 14 15 14 13 15 15
2 2 3 3 4 5 6 9 5 4 4 4 6 8 8 8 7 6 5 6 8 9 8 12 14 9 5 5 5 4 6 6 7 7 6 6 9 15 18 17 15 14 14 14 14 13 12 12 14 17 19 21 23 22 20 17 16 14 14 16 17 16 15 14 15 14 13 12 12 11 13 12 10 9 8 8 7 7 10 11 12 15 14 11 13 15
3 2 5 1 2 3 5 9 6 4 4 4 6 8 8 7 6 6 4 6 9 10 8 10 13 8 6 8 9 8 8 9 10 11 9 6 6 14 18 16 15 14 13 13 13 12 12 13 15 18 20 22 24 27 27 25 25 25 21 14 13 15 16 16 16 15 14 12 11 9 9 9 7 6 6 8 9 10 11 11 11 15 15 11 9 12
3 2 5 4 3 2 2 5 5 6 7 6 7 7 5 4 5 4 3 3 5 8 7 7 5 5 5 8 10 10 11 13 12 12 11 8 9 13 15 14 14 13 12 12 12 12 11 12 14 16 19 20 23 25 25 25 27 30 31 28 19 16 18 20 18 17 16 15 13 10 9 11 10 6 6 6 7 11 12 11 11 12 13 13 10 9
2 2 3 4 3 4 6 6 5 6 6 5 5 8 9 3 5 6 5 5 6 7 5 2 1 4 5 7 10 11 11 12 11 10 9 9 10 13 13 12 12 11 11 11 10 10 10 11 13 16 19 21 22 23 24 27 29 28 30 33 30 26 26 28 28 27 27 28 25 19 13 12 11 9 11 10 9 11 10 9 9 9 9 10 10 9
3 5 2 1 2 2 6 7 6 5 4 1 3 7 11 5 6 7 5 6 6 5 5 6 6 7 7 7 10 11 10 10 10 10 9 8 9 10 10 10 10 10 10 10 9 9 10 12 15 18 22 23 24 24 27 29 29 29 29 31 31 30 29 29 30 29 29 29 28 27 23 18 15 11 8 6 6 7 5 3 4 5 7 8 8 9
3 5 2 1 2 1 1 4 4 2 1 2 3 8 12 6 8 10 8 8 8 10 11 11 10 10 9 8 9 11 11 10 10 11 11 9 8 9 10 9 9 9 9 9 8 9 11 14 16 19 22 24 24 26 28 29 28 29 30 30 29 30 28 28 29 28 27 27 26 26 26 25 24 23 18 14 11 7 4 2 4 4 5 6 8 10
4 3 2 2 1 1 2 3 2 2 1 2 4 8 11 10 7 8 9 6 3 7 12 11 10 11 12 10 9 10 11 11 10 10 9 8 8 8 9 8 8 8 8 8 10 11 14 16 18 19 21 22 24 25 26 26 26 27 28 27 26 26 26 26 27 26 26 25 24 23 23 23 22 22 22 22 20 17 15 10 3 3 5 7 9 9
5 3 2 1 1 0 2 3 2 2 2 4 3 5 7 6 6 3 5 5 8 4 12 12 11 11 11 11 10 9 9 10 9 7 6 7 7 8 9 9 9 9 9 11 13 14 16 18 19 18 19 20 23 23 22 22 23 24 25 26 24 23 23 23 24 24 23 22 21 20 20 20 20 21 21 21 20 18 17 17 12 7 8 10 10 10
3 3 2 1 1 2 3 3 2 2 1 3 3 5 6 6 8 5 3 3 7 6 11 12 12 11 11 11 9 7 6 8 7 3 2 4 5 6 8 9 11 11 11 12 12 12 13 15 17 16 16 18 19 17 17 18 19 20 22 23 21 21 21 22 21 20 19 18 18 17 17 17 18 18 18 18 18 16 15 16 15 13 12 11 11 12
8 4 4 3 1 2 2 2 1 2 1 3 5 5 5 6 9 6 4 2 2 3 9 11 11 10 8 8 6 4 4 5 4 3 3 4 4 6 7 8 10 13 12 11 10 9 9 10 11 13 13 15 16 14 13 14 15 17 18 19 18 18 18 19 18 17 16 16 15 14 15 16 16 16 17 16 16 15 15 15 15 15 14 14 13 14
9 5 4 4 2 1 2 2 2 2 0 4 6 6 4 5 6 3 3 1 1 5 8 9 10 9 7 6 4 4 5 5 5 5 5 6 6 7 8 8 9 12 14 14 12 11 10 9 10 12 14 14 14 12 11 12 13 14 14 14 15 15 15 15 15 14 14 14 14 14 14 15 16 16 17 17 17 16 16 15 16 17 18 18 18 18
5 3 3 4 3 2 2 3 2 1 1 4 6 9 7 3 3 3 3 1 2 6 7 8 9 7 5 5 4 4 5 6 7 7 6 7 6 7 9 11 13 14 15 15 14 13 12 13 13 13 14 13 11 11 10 11 13 13 12 12 13 13 13 14 13 13 13 14 15 16 16 16 17 18 18 18 19 18 18 17 17 18 18 19 20 20
2 2 3 3 2 1 2 3 2 1 2 5 7 8 6 1 2 2 3 4 6 9 9 9 9 8 7 8 7 7 8 9 9 8 7 7 6 7 10 14 16 14 13 13 12 11 11 13 13 12 12 11 9 9 9 9 10 12 11 10 11 12 12 12 13 13 14 15 16 16 17 17 18 19 19 20 20 21 22 21 20 19 20 20 21 22
2 1 2 2 2 1 3 3 2 2 3 7 5 5 5 3 2 3 5 6 7 9 10 9 9 9 10 10 9 9 9 9 9 8 8 8 7 9 13 14 14 13 13 14 12 10 10 12 11 10 9 8 7 6 6 7 7 9 9 8 9 11 11 11 13 13 14 15 16 17 18 18 18 19 20 20 21 22 23 23 23 23 22 21 22 23
3 2 2 1 1 1 3 2 2 2 3 7 6 4 3 3 3 5 7 7 7 7 8 7 7 8 10 11 10 10 10 9 8 8 8 7 7 9 12 13 13 11 12 13 10 8 9 9 8 8 6 4 4 4 5 6 7 10 11 11 11 12 12 13 13 14 14 15 16 17 18 18 19 19 20 21 22 23 23 24 24 25 25 24 25 25
3 5 5 2 2 3 3 3 3 3 4 7 7 6 6 8 8 8 9 8 7 6 6 6 6 7 8 10 10 9 8 7 7 7 6 6 6 8 10 11 10 8 9 10 8 6 6 7 6 5 4 4 5 5 7 8 10 13 15 15 15 15 15 16 16 16 16 16 16 17 19 19 20 20 20 22 22 23 23 23 24 25 26 25 25 25
4 7 7 5 4 6 5 5 5 6 7 8 8 8 9 10 9 9 10 9 7 6 7 7 8 8 8 9 8 7 7 6 6 6 6 5 5 8 11 10 8 7 7 7 6 5 4 4 3 2 5 9 11 12 12 14 14 16 17 16 16 16 16 16 16 17 17 17 16 17 18 19 19 19 20 21 21 20 21 23 24 25 25 24 24 24
3 5 5 4 4 4 4 4 6 7 6 7 8 9 9 9 8 8 8 7 7 7 8 8 9 9 8 9 8 7 6 6 6 6 6 5 5 7 11 10 8 8 6 6 4 3 3 2 3 6 11 14 14 14 15 16 16 17 17 16 16 17 17 17 17 18 18 17 17 17 17 18 19 19 19 19 19 20 21 22 23 24 24 24 24 25
3 4 4 4 4 4 5 5 5 6 6 6 8 7 7 7 7 7 6 6 7 8 8 9 9 7 6 6 7 7 6 5 5 4 4 4 6 9 11 11 9 8 5 3 2 4 5 4 9 12 14 15 14 14 15 16 16 16 16 16 16 16 16 16 16 17 17 16 16 17 17 17 18 18 19 19 20 21 21 22 22 24 24 23 23 24
3 4 3 4 5 5 5 6 6 6 6 7 8 7 6 6 6 6 6 7 7 7 7 8 9 8 7 7 6 6 6 5 5 6 4 4 6 9 11 12 10 7 5 3 4 5 3 8 12 11 12 13 13 13 14 15 15 14 14 14 14 13 14 14 15 16 16 15 15 16 17 18 18 19 20 20 21 22 21 21 21 22 24 24 22 22
4 4 3 4 5 3 3 4 5 4 5 5 6 6 6 6 6 7 6 6 7 7 6 7 8 9 10 10 8 6 6 6 7 8 6 7 9 11 13 13 10 7 6 7 8 5 4 10 11 11 10 11 11 12 13 13 12 11 11 11 11 11 13 14 14 15 16 16 16 16 18 20 20 20 21 21 22 23 23 22 21 21 23 24 23 22
4 4 3 4 4 3 3 4 4 5 5 5 6 6 5 5 6 6 6 5 5 6 7 7 7 7 7 8 9 9 8 8 9 9 8 10 14 14 12 10 7 5 5 8 7 5 10 12 11 10 10 10 10 11 11 11 10 10 9 9 10 11 12 12 12 13 14 14 14 15 16 17 18 18 19 21 22 22 22 23 23 22 22 23 24 24
Wind_Direction
168 197 226 220 224 224 226 224 232 248 247 248 256 263 257 252 252 246 243 238 233 217 202 204 189 192 213 225 240 250 256 264 227 180 149 154 161 162 163 159 149 136 136 144 147 156 162 161 162 167 169 168 160 144 150 154 136 137 151 156 159 156 152 157 157 153 153 153 152 155 154 151 154 158 162 162 156 151 152 151 157 170 177 186 195 198
176 207 227 223 224 230 235 228 224 240 253 259 265 275 280 279 275 271 270 253 231 214 199 195 185 194 207 215 232 240 249 261 215 173 154 152 162 167 160 156 140 125 132 140 147 156 158 161 163 163 165 162 144 139 152 142 120 134 151 156 157 152 152 159 160 154 154 155 153 154 158 155 150 151 154 151 150 147 139 133 142 160 168 173 178 177
201 230 229 222 227 231 239 238 226 230 244 256 263 276 282 277 288 291 283 271 245 209 187 184 187 205 207 207 222 225 217 225 181 164 162 154 160 168 160 155 138 134 142 144 148 153 157 162 161 160 158 147 137 140 142 122 119 138 148 154 154 149 151 161 166 159 157 157 155 155 158 156 150 146 145 141 141 142 136 136 145 154 158 153 149 152
216 234 222 221 230 233 239 244 235 227 237 243 237 253 268 267 279 291 288 299 318 168 152 160 178 232 222 204 222 229 193 189 184 175 167 158 164 170 163 156 147 146 147 146 150 149 153 153 152 155 142 124 123 120 118 128 137 141 146 153 153 151 158 170 174 168 163 161 161 158 154 152 147 142 139 135 135 137 133 133 140 144 141 130 121 130
241 240 213 213 229 235 240 247 240 214 231 246 226 226 256 271 271 277 306 337 350 352 87 97 56 320 273 215 248 268 209 188 191 181 169 154 148 146 148 149 147 148 147 149 150 142 139 133 137 141 115 100 103 109 134 158 151 144 150 155 154 156 166 173 168 164 161 153 145 140 135 133 132 131 133 133 135 137 130 128 135 142 141 124 109 113
241 243 211 207 222 230 235 246 236 196 219 280 237 222 242 271 278 292 317 339 355 329 355 77 63 307 298 296 276 281 253 213 197 179 179 157 115 117 133 140 137 139 141 138 126 112 112 115 115 109 99 106 120 139 160 163 150 148 154 158 157 157 163 163 154 150 148 141 134 131 128 126 126 128 135 138 141 143 137 132 138 149 157 151 130 115
233 239 225 212 212 217 225 236 220 174 176 279 260 247 246 258 270 280 301 318 332 273 280 94 117 262 308 309 271 259 244 231 194 166 177 158 111 118 133 134 128 129 121 103 89 77 64 67 61 66 98 119 134 147 153 150 148 152 157 159 158 156 159 158 152 147 140 136 135 133 131 131 132 137 142 144 143 142 141 137 137 144 145 140 135 122
213 229 238 226 211 210 218 223 192 150 156 237 246 268 266 259 262 260 262 275 253 216 241 113 128 183 299 284 268 260 253 249 170 162 162 123 112 117 118 113 107 104 100 96 93 79 62 51 37 53 98 112 122 132 140 148 153 156 159 159 157 158 162 160 157 152 143 139 138 134 134 137 140 142 143 143 140 139 142 140 135 138 136 130 130 124
203 213 231 237 226 209 201 195 179 159 185 233 216 240 261 261 259 253 226 249 259 131 272 268 133 130 275 266 281 284 266 256 194 177 133 107 114 104 93 99 98 98 106 111 112 103 92 83 68 85 111 118 132 145 152 156 156 155 158 160 161 163 165 163 161 158 151 144 141 139 142 144 143 139 136 137 138 137 140 140 137 139 141 138 134 129
214 204 210 225 226 204 193 194 196 195 208 223 219 234 258 264 264 261 226 229 207 100 262 264 149 129 278 276 287 290 259 232 213 174 119 112 107 92 93 104 105 109 119 114 109 109 110 109 107 119 137 141 143 149 153 155 155 153 157 164 167 167 167 165 164 162 156 150 148 149 150 147 142 138 136 136 137 137 139 142 144 144 141 139 136 131
252 230 207 208 202 188 209 220 220 227 222 213 216 234 258 265 275 273 232 177 114 215 242 239 185 156 254 282 250 244 261 217 170 120 112 111 99 96 104 112 115 126 131 117 114 119 124 127 130 142 153 148 142 147 152 153 158 160 165 171 172 171 169 166 167 165 159 157 159 156 152 149 145 143 143 140 139 143 144 142 144 144 143 144 142 131
250 247 231 190 179 174 197 229 236 234 225 214 212 213 242 281 326 324 271 133 140 249 226 209 206 174 198 276 264 10 352 317 141 123 121 108 99 102 106 107 116 128 126 121 124 132 139 143 151 159 157 145 141 148 154 159 168 170 172 178 178 175 171 168 170 167 162 164 163 156 154 153 151 150 149 146 145 149 150 145 144 147 148 149 150 144
243 238 228 184 162 151 187 222 255 255 227 208 214 199 212 295 356 336 288 165 194 242 209 193 219 217 195 267 311 49 36 20 71 116 123 109 104 108 107 107 118 127 129 134 138 144 149 154 174 174 158 149 148 152 162 173 177 176 177 181 182 179 175 174 173 169 167 168 163 159 159 156 153 154 152 150 150 151 152 151 152 154 149 146 149 149
260 262 248 211 165 160 206 209 224 257 219 187 192 169 169 188 111 274 280 229 218 248 230 194 201 241 211 310 1 58 61 44 51 81 104 107 112 119 122 121 127 131 132 138 140 148 156 154 175 175 161 166 160 157 169 182 181 179 179 182 184 181 178 177 174 171 171 170 165 162 161 156 155 156 154 152 152 154 157 157 158 159 154 147 149 151
231 257 245 233 197 172 205 224 222 238 215 180 182 154 164 168 164 210 216 196 234 268 280 209 173 217 188 201 59 70 63 54 54 59 82 99 113 122 123 123 126 126 123 124 138 154 159 154 172 174 169 190 174 155 161 174 177 183 184 185 188 184 179 176 175 175 175 174 169 165 163 159 157 156 154 153 155 158 160 161 165 163 157 150 148 152
231 240 212 216 216 180 191 218 230 257 293 278 213 164 208 194 155 173 190 190 182 79 329 274 166 230 197 211 69 77 65 56 60 64 79 92 104 110 110 113 116 118 125 133 148 155 140 142 167 178 175 186 172 144 143 158 173 189 192 190 192 187 181 178 177 179 178 175 169 167 165 161 158 156 154 156 159 162 159 160 165 160 155 152 149 151
229 259 237 211 211 201 193 200 205 213 232 296 319 206 228 197 143 130 272 279 85 91 290 170 131 295 331 352 33 70 69 62 66 68 78 89 97 101 103 110 115 119 127 130 137 144 122 128 153 171 181 186 163 144 153 168 179 189 192 191 193 192 187 182 181 182 183 181 170 167 166 161 158 157 158 159 157 154 152 149 155 154 151 152 152 153
205 253 289 242 210 215 202 194 209 200 154 144 232 227 246 136 119 112 117 311 44 159 257 151 133 79 32 297 4 61 71 69 77 79 81 87 95 101 107 114 120 124 125 121 123 140 141 127 141 157 176 181 161 156 166 172 176 184 192 198 200 200 196 190 188 186 186 185 172 167 166 162 162 161 162 162 156 150 146 143 149 152 151 150 150 148
203 235 294 300 230 237 218 186 212 227 174 164 197 209 101 83 87 40 135 173 173 197 269 55 103 63 56 259 314 62 88 87 87 88 87 89 96 106 113 116 120 121 123 126 130 147 153 134 139 151 160 161 152 159 169 166 163 167 186 205 208 206 201 195 194 190 187 185 178 175 172 166 167 168 165 162 160 155 147 143 147 150 149 147 144 145
207 170 283 298 286 3 347 224 209 234 229 204 169 120 117 139 164 190 162 161 154 181 239 34 35 338 299 277 298 98 103 95 91 87 88 94 101 112 120 123 127 127 127 132 136 146 148 132 129 131 137 141 141 153 164 165 165 163 169 202 207 205 201 194 189 187 186 180 176 177 175 170 172 174 167 162 161 159 150 146 149 151 148 145 146 150
313 147 196 294 319 70 33 278 229 78 291 247 206 181 167 126 150 178 198 178 146 148 168 121 41 268 268 295 20 72 77 84 93 91 90 96 104 112 119 124 131 133 129 134 138 141 139 128 119 117 125 133 135 144 151 151 154 151 154 179 192 198 200 194 188 190 189 180 173 174 175 176 177 174 166 162 163 159 155 154 154 154 150 149 153 157
352 201 180 241 296 123 193 290 2 43 25 349 254 223 182 124 121 114 309 257 145 114 155 154 152 258 268 314 45 56 55 57 62 81 96 96 101 108 108 109 114 123 130 131 131 132 134 134 125 119 122 124 120 119 120 117 110 106 128 156 175 192 197 195 195 198 196 188 179 174 176 180 175 169 163 161 161 159 158 162 161 157 155 156 159 162
144 239 188 191 248 186 249 317 16 42 31 32 36 7 0 55 127 142 200 261 342 58 88 114 105 268 310 36 67 57 51 46 28 38 82 82 81 89 80 65 67 96 128 129 126 132 142 142 134 126 118 113 110 104 98 101 95 87 109 125 136 180 194 196 201 206 202 198 191 183 195 205 172 163 162 161 161 163 162 163 163 160 162 163 163 167
9 327 283 318 326 345 348 343 29 47 37 32 30 18 14 3 344 172 173 173 145 112 89 66 84 151 353 25 68 63 52 47 32 37 72 80 76 78 73 56 47 63 88 113 129 133 128 121 117 116 115 117 121 112 104 113 109 98 103 115 150 194 192 189 200 216 210 196 185 169 228 239 161 154 161 166 165 167 165 164 163 164 167 167 168 174
351 324 41 55 2 352 353 346 11 35 38 46 22 22 22 10 3 359 116 96 103 177 146 132 189 200 128 72 81 74 62 53 55 63 73 84 83 79 78 71 62 60 61 75 90 88 93 92 85 85 87 92 99 101 114 134 127 117 127 147 180 193 173 172 188 212 213 189 174 161 127 147 153 152 164 171 170 169 168 168 168 167 171 171 172 177
114 251 57 100 124 177 237 253 260 358 31 49 21 27 28 16 9 4 96 86 76 185 133 131 154 159 119 103 91 86 85 81 85 83 75 78 84 84 83 74 66 62 57 54 50 47 51 53 56 61 63 71 84 103 135 148 138 151 165 156 160 166 156 153 165 196 211 202 184 180 152 149 165 170 172 173 173 174 174 175 174 173 175 174 174 177
120 269 289 132 149 177 184 178 175 143 78 62 31 28 32 24 16 29 75 86 159 106 64 131 145 134 121 115 110 110 114 115 102 91 77 68 71 73 75 70 65 60 54 55 53 50 46 40 46 57 64 78 89 102 126 117 109 128 138 125 122 128 139 145 145 161 178 190 198 180 157 163 182 180 175 179 181 183 184 179 177 177 177 177 176 178
91 320 280 256 102 151 146 135 130 111 81 74 54 35 33 34 33 48 71 267 243 110 63 122 132 126 131 138 129 125 126 121 108 100 92 83 80 83 84 77 68 60 53 54 56 54 46 34 43 55 65 105 128 134 133 111 100 107 109 105 107 101 102 112 105 107 140 160 178 169 162 179 201 187 177 181 179 185 189 183 179 182 183 182 181 184
64 280 246 155 173 196 137 124 124 119 101 91 82 58 42 42 44 51 42 291 259 129 145 135 110 105 117 125 120 121 123 117 107 103 109 112 109 103 95 84 73 65 59 57 54 51 46 37 39 43 41 53 80 101 116 116 112 115 119 116 111 113 116 116 116 126 150 156 156 156 159 179 209 196 184 185 166 157 179 182 183 188 189 186 184 187
46 277 268 162 195 229 145 132 144 134 118 117 105 83 65 60 59 52 10 358 51 84 117 118 103 89 81 77 66 83 99 98 93 88 85 104 116 108 98 89 80 70 62 60 56 50 48 44 41 41 39 39 40 40 43 52 62 77 103 120 122 126 131 129 129 138 144 137 132 136 145 165 192 189 178 188 182 171 182 190 194 195 194 187 183 186
40 291 291 252 194 232 137 132 140 119 107 114 106 91 82 78 66 53 14 9 51 64 67 92 102 95 71 63 57 61 70 70 72 71 59 44 81 98 95 90 85 76 66 61 57 51 47 44 39 37 38 38 39 40 40 39 40 40 43 65 108 126 122 115 115 119 117 109 100 100 110 124 139 146 160 185 197 200 202 207 210 207 205 201 189 183
26 345 327 11 47 335 57 98 101 88 77 62 56 44 34 67 85 76 50 43 87 92 62 49 78 84 69 73 69 62 65 68 66 67 64 51 56 76 82 83 84 81 74 67 59 52 47 43 38 35 35 37 38 41 41 40 41 39 36 40 58 88 92 83 80 79 72 67 71 84 102 106 106 128 167 181 203 212 211 212 214 213 213 218 218 205
112 75 2 30 50 335 353 41 60 72 71 46 16 351 329 312 125 103 88 102 116 116 99 78 86 71 67 79 77 65 59 63 64 62 65 66 64 68 75 78 80 80 76 72 65 57 52 48 42 36 34 36 37 39 41 43 42 40 39 42 50 61 67 65 63 60 53 50 53 60 82 110 122 149 167 168 182 193 192 197 204 206 212 223 234 236
134 111 77 42 91 329 343 24 39 56 76 356 312 328 319 295 137 111 97 115 116 106 114 130 121 94 80 81 85 83 72 65 67 65 63 68 73 75 75 73 74 75 69 65 62 55 51 49 45 40 35 32 31 35 40 43 43 43 44 46 48 50 54 57 56 52 49 47 45 43 47 57 62 73 109 137 167 183 182 194 211 221 224 225 238 246
101 100 125 155 116 169 356 48 48 64 159 266 313 340 339 357 97 101 96 102 111 118 119 119 118 110 102 96 92 94 89 78 73 69 65 70 80 87 87 79 77 79 71 66 62 53 47 46 42 38 34 30 28 31 35 38 40 42 44 46 46 45 46 47 47 43 40 40 37 33 34 35 35 34 34 33 33 30 13 278 233 249 254 253 264 265
115 108 128 131 115 171 135 87 99 164 220 329 355 359 356 8 43 75 87 66 59 132 124 111 110 111 109 109 104 102 102 93 78 66 63 69 78 88 95 92 87 88 86 84 82 73 65 59 51 42 36 33 32 30 30 32 36 39 42 44 45 44 42 41 40 36 33 31 26 23 23 24 24 22 17 16 20 22 20 12 344 283 287 291 289 281
129 116 57 42 1 58 106 88 89 110 11 353 4 356 351 356 352 20 96 22 347 80 116 109 110 114 114 115 116 120 115 93 72 57 56 71 82 90 96 99 101 104 103 96 87 81 78 72 64 55 45 41 40 32 26 29 34 38 39 40 41 40 38 36 33 29 27 25 19 15 15 15 15 11 5 3 5 7 8 9 9 357 330 314 306 297
83 108 92 99 335 10 82 88 64 89 8 322 303 310 331 347 337 343 88 32 356 60 107 114 119 123 125 129 140 149 120 78 67 66 71 87 100 100 100 104 107 109 112 109 99 89 83 79 75 68 57 51 48 38 28 29 34 38 39 36 37 38 36 33 29 23 20 17 13 12 10 6 3 0 356 355 356 354 350 350 353 354 348 335 320 310
35 47 82 97 61 29 85 106 80 108 187 278 286 301 333 337 324 339 70 65 329 101 111 114 121 127 129 134 147 146 98 80 99 144 156 152 133 113 109 106 104 104 103 102 105 105 102 95 86 78 67 60 57 48 39 36 38 42 40 37 39 40 34 28 22 15 11 6 4 4 2 359 356 353 351 349 347 345 340 334 331 330 330 328 321 314
25 22 39 45 38 37 73 85 73 82 211 293 307 313 320 323 323 359 90 109 197 127 121 120 124 129 134 137 132 103 98 121 146 156 163 161 141 128 129 120 106 96 79 67 72 84 95 97 86 74 67 64 59 51 48 49 48 48 44 39 37 34 25 17 12 10 8 2 358 355 350 349 349 346 347 347 344 341 336 330 324 319 314 312 310 309
24 16 25 35 40 47 69 86 89 73 287 288 301 299 292 306 3 56 126 156 85 97 110 118 119 122 125 123 106 87 94 112 125 134 144 139 127 123 118 103 92 86 74 63 61 66 76 83 79 73 68 62 55 48 48 50 49 45 41 39 34 25 18 14 12 12 9 2 358 357 353 352 349 343 339 338 336 335 334 331 329 324 318 312 306 303
20 7 18 22 2 6 80 98 100 77 288 278 285 299 310 16 80 79 114 114 90 89 95 102 107 106 98 94 96 101 104 104 108 111 107 100 94 87 83 81 81 83 82 75 64 55 65 77 76 72 69 62 54 51 52 55 50 37 34 39 31 18 13 15 14 11 7 4 3 1 358 355 353 349 345 340 335 333 332 331 329 329 329 324 315 307
10 49 63 32 337 0 69 81 94 95 311 308 318 342 356 36 109 99 91 90 83 86 90 90 93 96 94 91 89 94 99 95 92 90 84 80 77 72 70 70 71 72 73 74 64 48 57 74 78 72 67 62 60 58 59 68 57 30 25 36 25 12 10 12 8 2 358 358 357 355 353 350 348 346 345 345 343 338 335 332 330 328 328 330 328 319
356 52 93 8 318 25 65 75 101 106 357 1 35 66 37 24 53 80 86 79 66 71 82 84 82 85 92 95 90 87 89 88 85 84 80 78 77 75 72 69 66 64 66 68 62 46 52 73 83 78 69 59 57 54 53 58 40 20 22 30 24 15 13 9 4 357 353 352 349 348 346 344 341 340 338 338 338 337 336 335 332 329 326 325 326 326
38 93 99 56 38 69 93 123 128 97 52 45 63 78 61 48 50 65 77 75 63 60 66 72 72 73 81 90 91 88 87 87 89 92 90 85 84 88 90 85 76 73 74 71 63 50 54 74 87 80 63 45 38 37 41 44 36 27 28 26 17 12 10 5 2 360 356 353 349 345 342 339 338 338 335 334 334 335 336 335 333 332 331 328 325 325
97 102 98 86 81 75 73 86 92 81 70 66 69 67 61 57 55 62 73 76 72 69 67 67 68 67 71 78 80 81 82 84 89 94 95 93 88 92 98 96 85 75 70 64 58 46 47 76 105 73 38 41 41 40 39 38 34 30 27 19 10 6 3 359 359 359 356 352 346 341 338 336 334 333 331 332 334 335 334 333 331 332 334 335 334 332
62 72 81 102 119 103 84 80 86 91 93 86 79 72 66 63 58 61 74 82 81 79 76 72 71 66 67 75 79 74 68 72 79 88 95 102 103 96 92 88 86 80 62 42 37 7 330 5 74 52 42 43 41 35 32 29 26 22 16 9 5 1 356 354 355 352 349 347 344 341 337 332 331 330 331 331 332 331 328 327 328 328 330 333 335 334
24 47 68 89 89 89 107 114 103 94 90 85 83 80 76 76 74 72 78 83 85 84 81 80 83 79 73 82 93 91 80 66 65 79 101 108 99 91 83 75 75 75 61 30 0 326 328 38 67 54 44 43 39 32 28 25 19 13 6 1 358 354 352 354 353 348 346 342 338 335 333 332 333 334 334 333 330 328 325 324 323 323 324 327 328 329
33 42 61 97 93 88 111 125 119 103 87 80 84 92 100 105 104 98 92 89 89 89 86 85 88 88 79 76 86 101 105 83 50 46 67 96 89 83 82 76 64 49 27 351 313 307 348 70 72 56 46 45 38 27 21 15 7 2 360 359 357 353 353 354 351 348 346 341 334 332 332 334 337 335 333 332 328 324 320 319 320 320 320 321 322 324
51 50 50 89 101 99 115 124 123 114 100 92 100 116 130 135 127 121 122 119 111 108 105 93 85 85 83 76 74 86 100 90 58 40 47 75 76 70 74 73 57 28 359 337 326 333 76 85 71 57 51 46 34 22 16 9 1 357 356 356 353 347 345 346 344 343 344 340 336 334 333 334 336 334 331 327 323 319 315 312 313 315 315 317 318 316
79 88 88 101 115 142 165 155 139 127 129 141 145 148 156 150 130 115 106 108 116 125 129 124 115 111 113 109 103 97 92 85 69 48 48 67 69 65 65 65 54 24 338 318 328 39 81 77 62 54 52 44 34 29 24 16 10 6 360 356 354 346 340 340 340 339 339 336 332 330 330 328 326 324 322 318 315 315 312 310 310 310 308 312 317 315